Content
SEND FEEDBACK

Daily
Averages
Monthly
Summary
United Kingdom

LONDON, ENGLAND


Home > Europe > United Kingdom > England
Elevation: 203 feet     Latitude: 51 09N     Longitude: 000 11W

WEATHER
 
SELECT A DAY
Number of Records: 294,534;   Date Range: 7/1/96 - 9/18/14
 
SHARE

PRINT THIS DATA

[ ← Previous Day ]
WEATHER ALMANAC - JANUARY 31, 2013
[ Next Day → ]
[ °C ]   °F
Weather ElementAverageHighLow
Temperature47.9 °F50 °F (10:20 am)44.6 °F (12:50 am)
Dewpoint39.7 °F44.6 °F (6:50 am)35.6 °F (3:50 pm)
Humidity73.4 %87 % (3:50 am)58 % (3:50 pm)
Barometer29.92 in30.06 in (12:50 am)29.83 in (6:50 am)
Wind Speed14.7 mph24.2 mph (11:20 am)
Wind Gust34.5 mph (1:20 pm)
Weather ElementAverage
Visibility6.1 mi
Wind DirectionWSW (238.1 °)

Weather ElementTotal
Precipitation---
Heating Degree Days17.7 (Base 65)
Averaged from 47 records on January 31, 2013
WEATHER CONDITIONS BREAKOUT
WIND DIRECTION BREAKOUT
WEATHER BY HOUR - JANUARY 31, 2013
[ °C ]   °F
Local TimeTemperatureDewpointHumidityBarometerVisibilityWind DirectionWind SpeedGust SpeedPrecipitationEventsConditions
12:50 AM44.6 °F37.4 °F76 %30.06 inSW (230°)8.1 mphClear
1:20 AM44.6 °F39.2 °F81 %30.04 inSW (230°)9.2 mphClear
1:50 AM44.6 °F39.2 °F81 %30.04 inSW (220°)9.2 mphClear
2:20 AM44.6 °F39.2 °F81 %30.04 inSW (220°)9.2 mphClear
2:50 AM46.4 °F41.0 °F81 %30.01 in6.2 miSW (220°)11.5 mphScattered Clouds
3:20 AM46.4 °F41.0 °F81 %29.98 in6.2 miSSW (210°)12.7 mphMostly Cloudy
3:50 AM46.4 °F42.8 °F87 %29.95 in6.2 miSW (220°)13.8 mphMostly Cloudy
4:20 AM48.2 °F42.8 °F82 %29.92 in5.6 miSSW (210°)15.0 mph26.5 mphMostly Cloudy
4:50 AM48.2 °F42.8 °F82 %29.92 in6.2 miSW (220°)16.1 mphMostly Cloudy
5:20 AM48.2 °F42.8 °F82 %29.89 in6.2 miSW (220°)18.4 mph29.9 mphMostly Cloudy
5:50 AM48.2 °F42.8 °F82 %29.89 in5.6 miSW (220°)17.3 mphRainLight Rain
6:20 AM48.2 °F42.8 °F82 %29.86 in5.0 miSW (220°)15.0 mphRainLight Rain
6:50 AM48.2 °F44.6 °F87 %29.83 in5.0 miSW (220°)17.3 mph31.1 mphRainLight Rain
7:20 AM48.2 °F44.6 °F87 %29.83 in5.6 miSW (220°)18.4 mphRainLight Rain
7:50 AM48.2 °F44.6 °F87 %29.83 in6.2 miSW (230°)15.0 mphRainLight Rain
8:20 AM48.2 °F42.8 °F82 %29.83 in6.2 miSW (230°)13.8 mphPartly Cloudy
8:50 AM48.2 °F41.0 °F76 %29.83 in6.2 miSW (230°)12.7 mphPartly Cloudy
9:20 AM48.2 °F41.0 °F76 %29.83 in6.2 miSW (230°)12.7 mphPartly Cloudy
9:50 AM48.2 °F41.0 °F76 %29.86 in6.2 miSW (230°)13.8 mphScattered Clouds
10:20 AM50.0 °F39.2 °F66 %29.86 in6.2 miWSW (250°)18.4 mphScattered Clouds
10:50 AM50.0 °F39.2 °F66 %29.89 in6.2 miWSW (250°)23.0 mphMostly Cloudy
11:20 AM50.0 °F39.2 °F66 %29.89 in6.2 miWSW (250°)24.2 mphMostly Cloudy
11:50 AM50.0 °F41.0 °F71 %29.89 in6.2 miWest (260°)21.9 mph33.4 mphMostly Cloudy
12:20 PM50.0 °F39.2 °F66 %29.86 in6.2 miWest (260°)21.9 mphScattered Clouds
12:50 PM50.0 °F37.4 °F62 %29.89 in6.2 miWest (260°)24.2 mphScattered Clouds
1:20 PM50.0 °F39.2 °F66 %29.89 in6.2 miWNW (290°)20.7 mph34.5 mphRainLight Rain
1:50 PM50.0 °F39.2 °F66 %29.92 in6.2 miWest (270°)17.3 mphScattered Clouds
2:20 PM50.0 °F39.2 °F66 %29.92 in6.2 miWest (270°)16.1 mphScattered Clouds
2:50 PM50.0 °F37.4 °F62 %29.92 in6.2 miWest (270°)17.3 mphScattered Clouds
3:20 PM50.0 °F37.4 °F62 %29.92 in6.2 miWest (270°)19.6 mphScattered Clouds
3:50 PM50.0 °F35.6 °F58 %29.92 in6.2 miWest (260°)17.3 mphScattered Clouds
4:20 PM48.2 °F37.4 °F66 %29.92 in6.2 miWest (260°)16.1 mphScattered Clouds
4:50 PM50.0 °F37.4 °F62 %29.92 in6.2 miWSW (250°)15.0 mphScattered Clouds
5:20 PM48.2 °F37.4 °F66 %29.95 in6.2 miWSW (250°)13.8 mphMostly Cloudy
5:50 PM48.2 °F35.6 °F62 %29.95 in6.2 miWSW (250°)13.8 mphMostly Cloudy
6:20 PM48.2 °F35.6 °F62 %29.95 in6.2 miWSW (240°)13.8 mphPartly Cloudy
6:50 PM48.2 °F35.6 °F62 %29.95 in6.2 miSW (230°)12.7 mphPartly Cloudy
7:20 PM48.2 °F37.4 °F66 %29.95 in6.2 miSW (230°)11.5 mphPartly Cloudy
7:50 PM46.4 °F37.4 °F71 %29.95 inSW (230°)10.4 mphClear
8:20 PM46.4 °F37.4 °F71 %29.95 inWSW (240°)10.4 mphClear
8:50 PM46.4 °F37.4 °F71 %29.95 in6.2 miSW (230°)9.2 mphPartly Cloudy
9:20 PM46.4 °F37.4 °F71 %29.95 in6.2 miWSW (240°)9.2 mphPartly Cloudy
9:50 PM46.4 °F39.2 °F76 %29.95 in6.2 miSW (220°)6.9 mphPartly Cloudy
10:20 PM46.4 °F39.2 °F76 %29.92 in6.2 miSW (230°)8.1 mphScattered Clouds
10:50 PM46.4 °F41.0 °F81 %29.89 in5.6 miSW (230°)11.5 mphPartly Cloudy
11:20 PM46.4 °F41.0 °F81 %29.89 in5.6 miSW (230°)12.7 mphPartly Cloudy
11:50 PM46.4 °F41.0 °F81 %29.89 inWSW (240°)12.7 mphClear
Hourly data recorded from EGKK, located miles away from London, England







STORIES FROM OUR PARTNERS